Tracking 29892 objects as of 21-Nov-2024
HD Live streaming from Space Station
objects crossing your sky now

CZ-2C DEB

Track CZ-2C DEB now!
10-day predictions


NORAD ID: 28482
Int'l Code: 2004-046D
Perigee: 667.0 km
Apogee: 829.1 km
Inclination: 98.7 °
Period: 99.6 minutes
Semi major axis: 7119 km
RCS: 0.0944 m2 (small)
Launch date: November 18, 2004
Source: People's Republic of China (PRC)
Launch site: Xichang Space Center, China (XSC)

Note: This is SATELLITE DEBRIS
Your satellite tracking list
Your tracking list is empty




NASA's NSSDC Master Catalog

Two Line Element Set (TLE):
1 28482U 04046D   24325.17099993  .00008898  00000-0  23485-2 0  9998
2 28482  98.6705  28.0380 0113859 136.3350 249.0728 14.45330480 45519
Source of the keplerian elements: AFSPC